When you browse on this site, cookies collect data to enhance your experience and personalize the content and advertising you see.
Visit our Privacy Policy to learn more. By continuing to use the site, you agree to this use of cookies and data.
  • en France
  • Liste des pays
  • À 7 jours
  • Température de l'eau
  • Carte météo
  • Widgets météo
  • user-avatar
    Se connecter

    Météo par heure à Linz

    Ce jour, 27 Mai, Mercredi

    Heure Température Précipitation Vent Pression Humidité
    00:00 +8°C° 0 mm 1 m/s 746 mmHg 91%
    01:00 +8°C° 0 mm 1 m/s 746 mmHg 92%
    02:00 +8°C° 0 mm 1 m/s 746 mmHg 92%
    03:00 +7°C° 0 mm 1 m/s 745 mmHg 92%
    04:00 +7°C° 0 mm 1 m/s 745 mmHg 92%
    05:00 +9°C° 0 mm 1 m/s 745 mmHg 90%
    06:00 +10°C° 0 mm 1 m/s 745 mmHg 87%
    07:00 +12°C° 0 mm 1 m/s 745 mmHg 84%
    08:00 +14°C° 0 mm 1 m/s 745 mmHg 76%
    09:00 +16°C° 0 mm 1 m/s 745 mmHg 68%
    10:00 +18°C° 0 mm 1 m/s 745 mmHg 60%
    11:00 +19°C° 0 mm 1 m/s 744 mmHg 57%
    12:00 +20°C° 0 mm 1 m/s 744 mmHg 53%
    13:00 +19°C° 0 mm 2 m/s 743 mmHg 49%
    14:00 +20°C° 0 mm 2 m/s 743 mmHg 50%
    15:00 +20°C° 0 mm 2 m/s 743 mmHg 51%
    16:00 +20°C° 0 mm 2 m/s 742 mmHg 52%
    17:00 +18°C° 0 mm 2 m/s 742 mmHg 60%
    18:00 +18°C° 0 mm 1 m/s 742 mmHg 67%
    19:00 +16°C° 0 mm 1 m/s 742 mmHg 74%
    20:00 +15°C° 0 mm 1 m/s 742 mmHg 74%
    21:00 +14°C° 0 mm 1 m/s 743 mmHg 74%
    22:00 +13°C° 0 mm 1 m/s 743 mmHg 73%
    23:00 +12°C° 0 mm 1 m/s 743 mmHg 76%

    Demain, 28 Mai, Jeudi

    Heure Température Précipitation Vent Pression Humidité
    00:00 +12°C° 0 mm 1 m/s 743 mmHg 78%
    01:00 +11°C° 0 mm 1 m/s 742 mmHg 80%
    02:00 +11°C° 0 mm 1 m/s 742 mmHg 80%
    03:00 +11°C° 0 mm 1 m/s 742 mmHg 80%
    04:00 +11°C° 0 mm 1 m/s 741 mmHg 80%
    05:00 +12°C° 0.1 mm 1 m/s 741 mmHg 80%
    06:00 +12°C° 0.1 mm 2 m/s 741 mmHg 80%
    07:00 +13°C° 0.1 mm 2 m/s 740 mmHg 81%
    08:00 +13°C° 0.4 mm 2 m/s 740 mmHg 84%
    09:00 +13°C° 0.4 mm 3 m/s 740 mmHg 87%
    10:00 +13°C° 0.4 mm 3 m/s 740 mmHg 90%
    11:00 +12°C° 1.3 mm 3 m/s 740 mmHg 90%
    12:00 +12°C° 1.3 mm 3 m/s 740 mmHg 91%
    13:00 +13°C° 1.3 mm 2 m/s 740 mmHg 91%
    14:00 +13°C° 0.2 mm 2 m/s 740 mmHg 86%
    15:00 +14°C° 0.2 mm 2 m/s 740 mmHg 82%
    16:00 +15°C° 0.2 mm 2 m/s 740 mmHg 77%
    17:00 +14°C° 0.3 mm 2 m/s 740 mmHg 79%
    18:00 +14°C° 0.3 mm 1 m/s 740 mmHg 81%
    19:00 +13°C° 0.3 mm 1 m/s 740 mmHg 82%
    20:00 +12°C° 0.1 mm 1 m/s 740 mmHg 84%
    21:00 +10°C° 0.1 mm 1 m/s 740 mmHg 86%
    22:00 +9°C° 0.1 mm 1 m/s 740 mmHg 87%
    23:00 +9°C° 0.2 mm 1 m/s 740 mmHg 89%

    Après-demain, 29 Mai, Vendredi

    Heure Température Précipitation Vent Pression Humidité
    00:00 +9°C° 0.2 mm 1 m/s 740 mmHg 90%
    01:00 +9°C° 0.2 mm 1 m/s 740 mmHg 91%
    02:00 +9°C° 0.2 mm 1 m/s 740 mmHg 92%
    03:00 +9°C° 0.2 mm 1 m/s 740 mmHg 94%
    04:00 +8°C° 0.2 mm 1 m/s 740 mmHg 95%
    05:00 +9°C° 0 mm 1 m/s 739 mmHg 94%
    06:00 +10°C° 0 mm 1 m/s 739 mmHg 92%
    07:00 +11°C° 0 mm 1 m/s 739 mmHg 90%
    08:00 +12°C° 0.2 mm 1 m/s 739 mmHg 89%
    09:00 +12°C° 0.2 mm 1 m/s 739 mmHg 87%
    10:00 +13°C° 0.2 mm 1 m/s 739 mmHg 86%
    11:00 +14°C° 0.5 mm 1 m/s 738 mmHg 82%
    12:00 +15°C° 0.5 mm 1 m/s 738 mmHg 77%
    13:00 +16°C° 0.5 mm 1 m/s 738 mmHg 73%
    14:00 +16°C° 0.4 mm 1 m/s 737 mmHg 72%
    15:00 +16°C° 0.4 mm 1 m/s 737 mmHg 70%
    16:00 +17°C° 0.4 mm 2 m/s 737 mmHg 69%
    17:00 +16°C° 0.3 mm 2 m/s 737 mmHg 74%
    18:00 +14°C° 0.3 mm 2 m/s 737 mmHg 79%
    19:00 +13°C° 0.3 mm 2 m/s 737 mmHg 84%
    20:00 +12°C° 0.1 mm 2 m/s 737 mmHg 86%
    21:00 +11°C° 0.1 mm 1 m/s 737 mmHg 88%
    22:00 +10°C° 0.1 mm 1 m/s 737 mmHg 90%
    23:00 +10°C° 0 mm 1 m/s 737 mmHg 89%

    30 Mai, Samedi

    Heure Température Précipitation Vent Pression Humidité
    00:00 +10°C° 0 mm 1 m/s 737 mmHg 88%
    01:00 +10°C° 0 mm 1 m/s 737 mmHg 87%
    02:00 +9°C° 0 mm 1 m/s 737 mmHg 88%
    03:00 +8°C° 0 mm 1 m/s 737 mmHg 89%
    04:00 +7°C° 0 mm 1 m/s 737 mmHg 90%
    05:00 +8°C° 0 mm 1 m/s 737 mmHg 85%
    06:00 +10°C° 0 mm 1 m/s 737 mmHg 80%
    07:00 +11°C° 0 mm 1 m/s 737 mmHg 75%
    08:00 +12°C° 0 mm 2 m/s 737 mmHg 68%
    09:00 +13°C° 0 mm 2 m/s 737 mmHg 62%
    10:00 +14°C° 0 mm 2 m/s 737 mmHg 56%
    11:00 +15°C° 0.1 mm 2 m/s 736 mmHg 56%
    12:00 +15°C° 0.1 mm 2 m/s 736 mmHg 55%
    13:00 +15°C° 0.1 mm 2 m/s 736 mmHg 55%
    14:00 +15°C° 0.1 mm 2 m/s 735 mmHg 55%
    15:00 +16°C° 0.1 mm 2 m/s 735 mmHg 55%
    16:00 +16°C° 0.1 mm 2 m/s 735 mmHg 56%
    17:00 +15°C° 0.1 mm 2 m/s 735 mmHg 62%
    18:00 +14°C° 0.1 mm 1 m/s 735 mmHg 68%
    19:00 +13°C° 0.1 mm 1 m/s 735 mmHg 74%
    20:00 +11°C° 0 mm 1 m/s 735 mmHg 77%
    21:00 +10°C° 0 mm 1 m/s 736 mmHg 80%
    22:00 +9°C° 0 mm 1 m/s 736 mmHg 83%
    23:00 +9°C° 0 mm 1 m/s 736 mmHg 84%

    31 Mai, Dimanche

    Heure Température Précipitation Vent Pression Humidité
    00:00 +8°C° 0 mm 1 m/s 736 mmHg 86%
    01:00 +8°C° 0 mm 1 m/s 735 mmHg 87%
    02:00 +7°C° 0 mm 1 m/s 735 mmHg 88%
    03:00 +7°C° 0 mm 1 m/s 735 mmHg 90%
    04:00 +7°C° 0 mm 1 m/s 735 mmHg 91%
    05:00 +8°C° 0 mm 1 m/s 735 mmHg 87%
    06:00 +9°C° 0 mm 2 m/s 735 mmHg 82%
    07:00 +10°C° 0 mm 2 m/s 735 mmHg 78%
    08:00 +13°C° 0 mm 2 m/s 734 mmHg 73%
    09:00 +13°C° 0 mm 3 m/s 734 mmHg 68%
    10:00 +16°C° 0 mm 3 m/s 734 mmHg 63%
    11:00 +16°C° 0 mm 3 m/s 734 mmHg 63%
    12:00 +17°C° 0 mm 3 m/s 734 mmHg 62%
    13:00 +17°C° 0 mm 3 m/s 734 mmHg 62%
    14:00 +17°C° 0.1 mm 3 m/s 733 mmHg 66%
    15:00 +16°C° 0.1 mm 3 m/s 733 mmHg 70%
    16:00 +16°C° 0.1 mm 3 m/s 733 mmHg 74%
    17:00 +14°C° 0.3 mm 2 m/s 733 mmHg 80%
    18:00 +13°C° 0.3 mm 2 m/s 733 mmHg 87%
    19:00 +12°C° 0.3 mm 1 m/s 733 mmHg 93%
    20:00 +11°C° 0.4 mm 1 m/s 733 mmHg 94%
    21:00 +10°C° 0.4 mm 2 m/s 733 mmHg 95%
    22:00 +10°C° 0.4 mm 2 m/s 733 mmHg 96%
    23:00 +10°C° 1.6 mm 2 m/s 733 mmHg 97%

    1 Juin, Lundi

    Heure Température Précipitation Vent Pression Humidité
    00:00 +10°C° 1.6 mm 3 m/s 733 mmHg 97%
    01:00 +10°C° 1.6 mm 3 m/s 732 mmHg 97%
    02:00 +10°C° 1.5 mm 3 m/s 732 mmHg 97%
    03:00 +10°C° 1.5 mm 4 m/s 732 mmHg 97%
    04:00 +10°C° 1.5 mm 4 m/s 732 mmHg 97%
    05:00 +10°C° 0.9 mm 4 m/s 732 mmHg 97%
    06:00 +10°C° 0.9 mm 3 m/s 732 mmHg 97%
    07:00 +10°C° 0.9 mm 3 m/s 732 mmHg 97%
    08:00 +11°C° 0.5 mm 3 m/s 732 mmHg 96%
    09:00 +12°C° 0.5 mm 2 m/s 733 mmHg 96%
    10:00 +12°C° 0.5 mm 2 m/s 733 mmHg 96%
    11:00 +13°C° 0.1 mm 2 m/s 733 mmHg 95%
    12:00 +13°C° 0.1 mm 1 m/s 733 mmHg 94%
    13:00 +13°C° 0.1 mm 1 m/s 733 mmHg 93%
    14:00 +14°C° 0.1 mm 1 m/s 733 mmHg 90%
    15:00 +15°C° 0.1 mm 1 m/s 733 mmHg 87%
    16:00 +16°C° 0.1 mm 1 m/s 733 mmHg 84%
    17:00 +15°C° 0 mm 1 m/s 733 mmHg 86%
    18:00 +15°C° 0 mm 1 m/s 733 mmHg 88%
    19:00 +14°C° 0 mm 1 m/s 733 mmHg 91%
    20:00 +13°C° 0 mm 1 m/s 733 mmHg 92%
    21:00 +12°C° 0 mm 1 m/s 733 mmHg 94%
    22:00 +11°C° 0 mm 1 m/s 734 mmHg 95%
    23:00 +11°C° 0 mm 1 m/s 734 mmHg 95%
    Voir plus